Location: Newark
(35.2672°N, 80.7344°W)
Time: 21:31:23
(UTC+00:00)

Envisat - Visible Passes

Search period start: 15 December 2019 00:00
Search period end: 25 December 2019 00:00
Orbit: 764 x 766 km, 98.1° (Epoch: 15 December)

Date Brightness Start Highest point End Pass type
(mag) Time Alt. Az. Time Alt. Az. Time Alt. Az.
15 Dec 4.4 11:39:24 10° NNE 11:44:13 43° E 11:49:02 10° S visible
15 Dec 3.4 22:50:49 10° SE 22:55:32 41° ENE 23:00:16 10° N visible
16 Dec 5.6 00:31:05 10° SW 00:34:39 19° W 00:38:16 10° NW visible
16 Dec 5.9 11:03:48 10° NE 11:07:15 18° E 11:10:40 10° SE visible
16 Dec 4.1 23:52:51 10° S 23:57:42 45° W 00:02:34 10° NNW visible
17 Dec 2.9 23:15:52 10° SSE 23:20:55 75° ENE 23:26:00 10° N visible
18 Dec 5.0 11:28:20 10° NNE 11:32:54 33° E 11:37:26 10° SSE visible
18 Dec 3.7 22:39:53 10° SE 22:44:19 32° ENE 22:48:47 10° N visible
19 Dec 5.2 00:19:11 10° SSW 00:23:18 25° W 00:27:27 10° NW visible
19 Dec 6.1 10:53:18 10° ENE 10:55:52 14° E 10:58:25 10° ESE visible
19 Dec 3.6 23:41:24 10° S 23:46:24 59° W 23:51:25 10° NNW visible
20 Dec 3.7 11:53:26 10° NNE 11:58:28 61° ESE 12:03:28 10° S visible
20 Dec 3.0 23:04:43 10° SSE 23:09:40 58° ENE 23:14:39 10° N visible
21 Dec 6.0 00:46:36 10° WSW 00:49:00 13° W 00:51:26 10° WNW visible
21 Dec 5.4 11:17:21 10° NE 11:21:34 26° E 11:25:44 10° SSE visible
22 Dec 4.8 00:07:28 10° SSW 00:11:58 32° W 00:16:29 10° NW visible
22 Dec 6.5 10:43:47 10° E 10:44:28 10° E 10:45:09 10° E visible
22 Dec 3.1 23:30:03 10° S 23:35:06 77° WSW 23:40:12 10° NNW visible
23 Dec 4.2 11:42:16 10° NNE 11:47:10 47° E 11:52:02 10° S visible
23 Dec 3.3 22:53:38 10° SE 22:58:26 45° ENE 23:03:16 10° N visible
24 Dec 5.7 00:34:18 10° SW 00:37:37 18° W 00:40:58 10° NW visible
24 Dec 5.8 11:06:31 10° NE 11:10:12 20° E 11:13:52 10° SE visible
